• In Germany
  • List of Countries
  • For 7 days
  • Water Temperature
  • Satellite Maps
  • Weather Map
  • Weather Widgets
  • user-avatar
    Login

    Hourly Weather Barisal

    Today, 25 November, Saturday

    Time Temperature Precipitation Wind Pressure Humidity
    00:00 +20°C° 0 mm 1 mps 759 mmHg 51%
    01:00 +19°C° 0 mm 2 mps 759 mmHg 51%
    02:00 +19°C° 0 mm 2 mps 759 mmHg 50%
    03:00 +18°C° 0 mm 3 mps 759 mmHg 50%
    04:00 +18°C° 0 mm 3 mps 759 mmHg 52%
    05:00 +18°C° 0 mm 3 mps 759 mmHg 54%
    06:00 +18°C° 0 mm 2 mps 760 mmHg 57%
    07:00 +20°C° 0 mm 3 mps 760 mmHg 55%
    08:00 +22°C° 0 mm 3 mps 761 mmHg 54%
    09:00 +25°C° 0 mm 3 mps 761 mmHg 53%
    10:00 +26°C° 0 mm 3 mps 761 mmHg 48%
    11:00 +28°C° 0 mm 3 mps 760 mmHg 44%
    12:00 +29°C° 0 mm 3 mps 760 mmHg 39%
    13:00 +30°C° 0 mm 3 mps 760 mmHg 38%
    14:00 +30°C° 0 mm 3 mps 759 mmHg 38%
    15:00 +30°C° 0 mm 2 mps 758 mmHg 37%
    16:00 +28°C° 0 mm 2 mps 758 mmHg 41%
    17:00 +26°C° 0 mm 2 mps 758 mmHg 45%
    18:00 +24°C° 0 mm 2 mps 759 mmHg 48%
    19:00 +23°C° 0 mm 2 mps 759 mmHg 49%
    20:00 +23°C° 0 mm 2 mps 760 mmHg 51%
    21:00 +21°C° 0 mm 2 mps 760 mmHg 52%
    22:00 +21°C° 0 mm 2 mps 760 mmHg 53%
    23:00 +20°C° 0 mm 2 mps 760 mmHg 54%

    Tomorrow, 26 November, Sunday

    Time Temperature Precipitation Wind Pressure Humidity
    00:00 +20°C° 0 mm 2 mps 760 mmHg 55%
    01:00 +20°C° 0 mm 2 mps 760 mmHg 57%
    02:00 +19°C° 0 mm 2 mps 760 mmHg 59%
    03:00 +19°C° 0 mm 2 mps 760 mmHg 62%
    04:00 +19°C° 0 mm 2 mps 760 mmHg 64%
    05:00 +19°C° 0 mm 2 mps 760 mmHg 66%
    06:00 +18°C° 0 mm 2 mps 760 mmHg 69%
    07:00 +20°C° 0 mm 2 mps 760 mmHg 65%
    08:00 +22°C° 0 mm 3 mps 761 mmHg 61%
    09:00 +25°C° 0 mm 3 mps 762 mmHg 56%
    10:00 +27°C° 0 mm 2 mps 761 mmHg 51%
    11:00 +28°C° 0 mm 2 mps 761 mmHg 45%
    12:00 +29°C° 0 mm 2 mps 760 mmHg 40%
    13:00 +30°C° 0 mm 2 mps 760 mmHg 39%
    14:00 +30°C° 0 mm 2 mps 759 mmHg 37%
    15:00 +30°C° 0 mm 2 mps 758 mmHg 36%
    16:00 +28°C° 0 mm 2 mps 758 mmHg 40%
    17:00 +26°C° 0 mm 1 mps 758 mmHg 44%
    18:00 +24°C° 0 mm 1 mps 758 mmHg 48%
    19:00 +24°C° 0 mm 2 mps 759 mmHg 49%
    20:00 +23°C° 0 mm 2 mps 759 mmHg 49%
    21:00 +23°C° 0 mm 2 mps 760 mmHg 50%
    22:00 +21°C° 0 mm 2 mps 760 mmHg 51%
    23:00 +21°C° 0 mm 2 mps 760 mmHg 51%

    Day after tomorrow, 27 November, Monday

    Time Temperature Precipitation Wind Pressure Humidity
    00:00 +20°C° 0 mm 2 mps 759 mmHg 51%
    01:00 +20°C° 0 mm 3 mps 759 mmHg 52%
    02:00 +19°C° 0 mm 3 mps 759 mmHg 53%
    03:00 +19°C° 0 mm 3 mps 758 mmHg 53%
    04:00 +19°C° 0 mm 2 mps 759 mmHg 57%
    05:00 +18°C° 0 mm 2 mps 759 mmHg 61%
    06:00 +18°C° 0 mm 2 mps 759 mmHg 65%
    07:00 +20°C° 0 mm 2 mps 759 mmHg 63%
    08:00 +23°C° 0 mm 2 mps 760 mmHg 61%
    09:00 +25°C° 0 mm 2 mps 761 mmHg 59%
    10:00 +26°C° 0 mm 2 mps 760 mmHg 54%
    11:00 +27°C° 0 mm 2 mps 760 mmHg 48%
    12:00 +29°C° 0 mm 2 mps 759 mmHg 43%
    13:00 +29°C° 0 mm 2 mps 758 mmHg 42%
    14:00 +30°C° 0 mm 2 mps 758 mmHg 40%
    15:00 +30°C° 0 mm 2 mps 757 mmHg 39%
    16:00 +28°C° 0 mm 1 mps 757 mmHg 44%
    17:00 +26°C° 0 mm 1 mps 757 mmHg 48%
    18:00 +24°C° 0 mm 1 mps 757 mmHg 53%
    19:00 +24°C° 0 mm 1 mps 757 mmHg 54%
    20:00 +23°C° 0 mm 1 mps 758 mmHg 56%
    21:00 +23°C° 0 mm 1 mps 758 mmHg 57%
    22:00 +21°C° 0 mm 2 mps 758 mmHg 59%
    23:00 +21°C° 0 mm 2 mps 758 mmHg 61%

    28 November, Tuesday

    Time Temperature Precipitation Wind Pressure Humidity
    00:00 +20°C° 0 mm 2 mps 758 mmHg 62%
    01:00 +20°C° 0 mm 2 mps 758 mmHg 64%
    02:00 +19°C° 0 mm 2 mps 758 mmHg 65%
    03:00 +19°C° 0 mm 2 mps 757 mmHg 67%
    04:00 +19°C° 0 mm 2 mps 758 mmHg 69%
    05:00 +19°C° 0 mm 2 mps 758 mmHg 71%
    06:00 +19°C° 0 mm 2 mps 758 mmHg 73%
    07:00 +21°C° 0 mm 2 mps 759 mmHg 68%
    08:00 +24°C° 0 mm 2 mps 760 mmHg 63%
    09:00 +26°C° 0 mm 2 mps 760 mmHg 58%
    10:00 +27°C° 0 mm 2 mps 760 mmHg 51%
    11:00 +28°C° 0 mm 2 mps 759 mmHg 44%
    12:00 +30°C° 0 mm 2 mps 759 mmHg 37%
    13:00 +30°C° 0 mm 2 mps 758 mmHg 36%
    14:00 +30°C° 0 mm 2 mps 758 mmHg 35%
    15:00 +30°C° 0 mm 2 mps 757 mmHg 34%
    16:00 +28°C° 0 mm 2 mps 758 mmHg 37%
    17:00 +26°C° 0 mm 2 mps 758 mmHg 41%
    18:00 +24°C° 0 mm 2 mps 758 mmHg 45%
    19:00 +24°C° 0 mm 2 mps 758 mmHg 46%
    20:00 +23°C° 0 mm 2 mps 759 mmHg 48%
    21:00 +21°C° 0 mm 2 mps 759 mmHg 49%
    22:00 +21°C° 0 mm 2 mps 759 mmHg 51%
    23:00 +20°C° 0 mm 2 mps 759 mmHg 53%

    29 November, Wednesday

    Time Temperature Precipitation Wind Pressure Humidity
    00:00 +20°C° 0 mm 2 mps 759 mmHg 55%
    01:00 +20°C° 0 mm 2 mps 759 mmHg 58%
    02:00 +19°C° 0 mm 2 mps 759 mmHg 61%
    03:00 +19°C° 0 mm 2 mps 759 mmHg 63%
    04:00 +19°C° 0 mm 2 mps 759 mmHg 65%
    05:00 +19°C° 0 mm 2 mps 759 mmHg 67%
    06:00 +18°C° 0 mm 2 mps 760 mmHg 69%
    07:00 +20°C° 0 mm 2 mps 760 mmHg 64%
    08:00 +23°C° 0 mm 2 mps 761 mmHg 59%
    09:00 +25°C° 0 mm 2 mps 762 mmHg 54%
    10:00 +27°C° 0 mm 3 mps 761 mmHg 48%
    11:00 +28°C° 0 mm 3 mps 760 mmHg 42%
    12:00 +29°C° 0 mm 3 mps 760 mmHg 36%
    13:00 +29°C° 0 mm 3 mps 759 mmHg 36%
    14:00 +29°C° 0 mm 3 mps 759 mmHg 35%
    15:00 +29°C° 0 mm 3 mps 758 mmHg 35%
    16:00 +27°C° 0 mm 3 mps 758 mmHg 39%
    17:00 +26°C° 0 mm 3 mps 759 mmHg 43%
    18:00 +24°C° 0 mm 3 mps 759 mmHg 46%
    19:00 +22°C° 0 mm 3 mps 759 mmHg 48%
    20:00 +21°C° 0 mm 3 mps 759 mmHg 50%
    21:00 +21°C° 0 mm 3 mps 760 mmHg 52%
    22:00 +20°C° 0 mm 3 mps 759 mmHg 55%
    23:00 +20°C° 0 mm 3 mps 759 mmHg 58%

    30 November, Thursday

    Time Temperature Precipitation Wind Pressure Humidity
    00:00 +19°C° 0 mm 3 mps 759 mmHg 61%
    01:00 +19°C° 0 mm 3 mps 759 mmHg 64%
    02:00 +19°C° 0 mm 2 mps 759 mmHg 67%
    03:00 +18°C° 0 mm 2 mps 759 mmHg 69%
    04:00 +18°C° 0 mm 2 mps 759 mmHg 71%
    05:00 +18°C° 0 mm 2 mps 759 mmHg 73%
    06:00 +17°C° 0 mm 2 mps 759 mmHg 74%
    07:00 +19°C° 0 mm 2 mps 760 mmHg 69%
    08:00 +21°C° 0 mm 3 mps 760 mmHg 64%
    09:00 +24°C° 0 mm 3 mps 761 mmHg 60%
    10:00 +25°C° 0 mm 3 mps 760 mmHg 54%
    11:00 +27°C° 0 mm 4 mps 759 mmHg 49%
    12:00 +28°C° 0 mm 4 mps 759 mmHg 44%
    13:00 +29°C° 0 mm 4 mps 758 mmHg 43%
    14:00 +29°C° 0 mm 4 mps 758 mmHg 43%
    15:00 +29°C° 0 mm 4 mps 757 mmHg 42%
    16:00 +27°C° 0 mm 3 mps 757 mmHg 46%
    17:00 +25°C° 0 mm 3 mps 757 mmHg 50%
    18:00 +24°C° 0 mm 2 mps 757 mmHg 54%
    19:00 +23°C° 0 mm 2 mps 758 mmHg 56%
    20:00 +21°C° 0 mm 2 mps 758 mmHg 57%
    21:00 +20°C° 0 mm 2 mps 759 mmHg 59%
    22:00 +20°C° 0 mm 2 mps 758 mmHg 60%
    23:00 +20°C° 0 mm 2 mps 758 mmHg 62%
    Show more